When you browse on this site, cookies collect data to enhance your experience and personalize the content and advertising you see.
Visit our Privacy Policy to learn more. By continuing to use the site, you agree to this use of cookies and data.
  • In Portugal
  • List of Countries
  • For 7 days
  • Water Temperature
  • Weather Map
  • Weather Widgets
  • user-avatar
    Login

    Hourly Weather Vrush

    Today, 23 September, Monday

    Time Temperature Precipitation Wind Pressure Humidity
    00:00 +2°C° 0 mm 2 mps 608 mmHg 58%
    01:00 +3°C° 0 mm 2 mps 608 mmHg 59%
    02:00 +3°C° 0 mm 2 mps 607 mmHg 59%
    03:00 +3°C° 0 mm 2 mps 608 mmHg 59%
    04:00 +3°C° 0 mm 2 mps 608 mmHg 57%
    05:00 +4°C° 0 mm 1 mps 608 mmHg 56%
    06:00 +5°C° 0 mm 1 mps 607 mmHg 55%
    07:00 +7°C° 0 mm 1 mps 608 mmHg 53%
    08:00 +8°C° 0 mm 2 mps 609 mmHg 52%
    09:00 +10°C° 0 mm 2 mps 611 mmHg 48%
    10:00 +12°C° 0 mm 2 mps 611 mmHg 47%
    11:00 +13°C° 0 mm 2 mps 611 mmHg 47%
    12:00 +13°C° 0 mm 3 mps 611 mmHg 46%
    13:00 +13°C° 0 mm 3 mps 610 mmHg 46%
    14:00 +14°C° 0 mm 2 mps 610 mmHg 47%
    15:00 +14°C° 0 mm 2 mps 610 mmHg 47%
    16:00 +10°C° 0 mm 2 mps 609 mmHg 56%
    17:00 +9°C° 0 mm 1 mps 608 mmHg 66%
    18:00 +6°C° 0 mm 1 mps 607 mmHg 76%
    19:00 +6°C° 0 mm 1 mps 607 mmHg 70%
    20:00 +6°C° 0 mm 1 mps 607 mmHg 65%
    21:00 +6°C° 0 mm 1 mps 607 mmHg 60%
    22:00 +5°C° 0 mm 1 mps 607 mmHg 60%
    23:00 +5°C° 0 mm 1 mps 607 mmHg 60%

    Tomorrow, 24 September, Tuesday

    Time Temperature Precipitation Wind Pressure Humidity
    00:00 +5°C° 0 mm 1 mps 607 mmHg 60%
    01:00 +5°C° 0 mm 1 mps 607 mmHg 60%
    02:00 +5°C° 0 mm 1 mps 607 mmHg 61%
    03:00 +4°C° 0 mm 2 mps 607 mmHg 61%
    04:00 +5°C° 0 mm 2 mps 607 mmHg 62%
    05:00 +6°C° 0 mm 1 mps 607 mmHg 63%
    06:00 +6°C° 0 mm 1 mps 607 mmHg 63%
    07:00 +7°C° 0 mm 2 mps 608 mmHg 59%
    08:00 +9°C° 0 mm 2 mps 610 mmHg 55%
    09:00 +13°C° 0 mm 2 mps 611 mmHg 51%
    10:00 +14°C° 0 mm 2 mps 611 mmHg 50%
    11:00 +13°C° 0 mm 3 mps 611 mmHg 49%
    12:00 +14°C° 0 mm 3 mps 610 mmHg 48%
    13:00 +14°C° 0 mm 3 mps 610 mmHg 49%
    14:00 +14°C° 0 mm 3 mps 610 mmHg 50%
    15:00 +14°C° 0 mm 3 mps 610 mmHg 51%
    16:00 +13°C° 0 mm 2 mps 609 mmHg 60%
    17:00 +10°C° 0 mm 1 mps 608 mmHg 69%
    18:00 +8°C° 0 mm 1 mps 606 mmHg 78%
    19:00 +8°C° 0 mm 1 mps 607 mmHg 74%
    20:00 +8°C° 0 mm 1 mps 607 mmHg 69%
    21:00 +8°C° 0 mm 1 mps 607 mmHg 64%
    22:00 +8°C° 0 mm 1 mps 607 mmHg 65%
    23:00 +7°C° 0 mm 2 mps 606 mmHg 66%

    Day after tomorrow, 25 September, Wednesday

    Time Temperature Precipitation Wind Pressure Humidity
    00:00 +7°C° 0 mm 2 mps 606 mmHg 67%
    01:00 +7°C° 0 mm 2 mps 606 mmHg 68%
    02:00 +6°C° 0 mm 2 mps 606 mmHg 69%
    03:00 +6°C° 0 mm 2 mps 606 mmHg 69%
    04:00 +7°C° 0 mm 2 mps 606 mmHg 68%
    05:00 +7°C° 0 mm 2 mps 606 mmHg 66%
    06:00 +7°C° 0 mm 2 mps 606 mmHg 64%
    07:00 +9°C° 0 mm 2 mps 607 mmHg 57%
    08:00 +13°C° 0 mm 2 mps 609 mmHg 50%
    09:00 +15°C° 0 mm 2 mps 610 mmHg 44%
    10:00 +16°C° 0 mm 2 mps 610 mmHg 44%
    11:00 +17°C° 0 mm 3 mps 610 mmHg 44%
    12:00 +17°C° 0 mm 3 mps 611 mmHg 44%
    13:00 +17°C° 0 mm 3 mps 610 mmHg 45%
    14:00 +17°C° 0 mm 3 mps 610 mmHg 45%
    15:00 +17°C° 0 mm 3 mps 610 mmHg 46%
    16:00 +14°C° 0 mm 3 mps 609 mmHg 54%
    17:00 +13°C° 0 mm 2 mps 609 mmHg 63%
    18:00 +10°C° 0 mm 2 mps 608 mmHg 72%
    19:00 +10°C° 0 mm 1 mps 608 mmHg 71%
    20:00 +10°C° 0 mm 1 mps 608 mmHg 71%
    21:00 +9°C° 0 mm 1 mps 608 mmHg 70%
    22:00 +9°C° 0 mm 1 mps 608 mmHg 68%
    23:00 +9°C° 0 mm 1 mps 608 mmHg 67%

    26 September, Thursday

    Time Temperature Precipitation Wind Pressure Humidity
    00:00 +9°C° 0 mm 1 mps 608 mmHg 65%
    01:00 +9°C° 0 mm 1 mps 608 mmHg 65%
    02:00 +9°C° 0 mm 1 mps 608 mmHg 66%
    03:00 +9°C° 0 mm 1 mps 608 mmHg 67%
    04:00 +8°C° 0 mm 2 mps 608 mmHg 68%
    05:00 +8°C° 0 mm 2 mps 608 mmHg 68%
    06:00 +8°C° 0 mm 2 mps 608 mmHg 69%
    07:00 +10°C° 0 mm 2 mps 609 mmHg 64%
    08:00 +13°C° 0 mm 2 mps 610 mmHg 58%
    09:00 +16°C° 0 mm 2 mps 611 mmHg 53%
    10:00 +17°C° 0 mm 3 mps 611 mmHg 50%
    11:00 +18°C° 0 mm 4 mps 611 mmHg 46%
    12:00 +19°C° 0 mm 4 mps 611 mmHg 43%
    13:00 +18°C° 0 mm 4 mps 611 mmHg 43%
    14:00 +18°C° 0 mm 4 mps 610 mmHg 42%
    15:00 +18°C° 0 mm 4 mps 610 mmHg 41%
    16:00 +16°C° 0 mm 3 mps 609 mmHg 49%
    17:00 +14°C° 0 mm 2 mps 608 mmHg 57%
    18:00 +12°C° 0 mm 1 mps 608 mmHg 64%
    19:00 +12°C° 0 mm 1 mps 608 mmHg 66%
    20:00 +11°C° 0 mm 1 mps 608 mmHg 67%
    21:00 +11°C° 0 mm 1 mps 608 mmHg 68%
    22:00 +10°C° 0 mm 1 mps 608 mmHg 71%
    23:00 +9°C° 0 mm 2 mps 608 mmHg 75%

    27 September, Friday

    Time Temperature Precipitation Wind Pressure Humidity
    00:00 +9°C° 0 mm 2 mps 608 mmHg 78%
    01:00 +9°C° 0 mm 2 mps 607 mmHg 78%
    02:00 +9°C° 0 mm 2 mps 607 mmHg 78%
    03:00 +8°C° 0 mm 2 mps 607 mmHg 78%
    04:00 +8°C° 0 mm 2 mps 607 mmHg 78%
    05:00 +8°C° 0 mm 2 mps 607 mmHg 77%
    06:00 +8°C° 0 mm 2 mps 607 mmHg 76%
    07:00 +12°C° 0 mm 2 mps 608 mmHg 70%
    08:00 +14°C° 0 mm 2 mps 609 mmHg 64%
    09:00 +16°C° 0 mm 2 mps 610 mmHg 57%
    10:00 +17°C° 0 mm 2 mps 610 mmHg 55%
    11:00 +18°C° 0 mm 3 mps 611 mmHg 52%
    12:00 +19°C° 0 mm 3 mps 611 mmHg 50%
    13:00 +19°C° 0 mm 3 mps 610 mmHg 50%
    14:00 +19°C° 0 mm 3 mps 610 mmHg 50%
    15:00 +18°C° 0 mm 3 mps 610 mmHg 50%
    16:00 +17°C° 0 mm 2 mps 609 mmHg 58%
    17:00 +15°C° 0 mm 2 mps 608 mmHg 66%
    18:00 +13°C° 0 mm 1 mps 607 mmHg 73%
    19:00 +12°C° 0 mm 1 mps 607 mmHg 73%
    20:00 +12°C° 0 mm 1 mps 607 mmHg 73%
    21:00 +12°C° 0 mm 1 mps 608 mmHg 72%
    22:00 +11°C° 0 mm 1 mps 607 mmHg 75%
    23:00 +11°C° 0 mm 1 mps 607 mmHg 79%

    28 September, Saturday

    Time Temperature Precipitation Wind Pressure Humidity
    00:00 +11°C° 0 mm 1 mps 607 mmHg 82%
    01:00 +11°C° 0 mm 1 mps 607 mmHg 82%
    02:00 +11°C° 0 mm 1 mps 606 mmHg 82%
    03:00 +9°C° 0 mm 2 mps 606 mmHg 82%
    04:00 +9°C° 0 mm 2 mps 606 mmHg 81%
    05:00 +9°C° 0 mm 2 mps 606 mmHg 81%
    06:00 +9°C° 0 mm 2 mps 605 mmHg 80%
    07:00 +12°C° 0 mm 2 mps 606 mmHg 72%
    08:00 +14°C° 0 mm 3 mps 607 mmHg 63%
    09:00 +17°C° 0 mm 3 mps 608 mmHg 55%
    10:00 +17°C° 0.1 mm 3 mps 608 mmHg 58%
    11:00 +15°C° 0.1 mm 4 mps 608 mmHg 62%
    12:00 +15°C° 0.1 mm 4 mps 608 mmHg 65%
    13:00 +14°C° 0.3 mm 3 mps 608 mmHg 71%
    14:00 +14°C° 0.3 mm 2 mps 607 mmHg 77%
    15:00 +12°C° 0.3 mm 2 mps 607 mmHg 83%
    16:00 +11°C° 0 mm 1 mps 607 mmHg 85%
    17:00 +11°C° 0 mm 1 mps 607 mmHg 86%
    18:00 +10°C° 0 mm 1 mps 607 mmHg 87%
    19:00 +9°C° 0 mm 1 mps 607 mmHg 87%
    20:00 +9°C° 0 mm 1 mps 607 mmHg 87%
    21:00 +9°C° 0 mm 1 mps 608 mmHg 86%
    22:00 +8°C° 0 mm 1 mps 608 mmHg 87%
    23:00 +8°C° 0 mm 1 mps 608 mmHg 87%
    Show more